| time (UTC) | temp C | wind direction | speed KPH | gust KPH | rain 1hr cm | rain 24hr cm | rain mn cm | humidity % | barometer mb |
| 20260506200038 | 28 | 339 | 3.2 | 61.2 | 0.00 | 0.00 | 0.00 | 100 | 1008.5 |
| 20260506195038 | 28 | 336 | 4.8 | 70.8 | 0.00 | 0.00 | 0.00 | 100 | 1008.6 |
| 20260506194018 | 28 | 329 | 4.8 | 67.6 | 0.00 | 0.00 | 0.00 | 100 | 1008.7 |
| 20260506193039 | 28 | 338 | 3.2 | 61.2 | 0.00 | 0.00 | 0.00 | 100 | 1008.7 |
| 20260506192019 | 28 | 327 | 4.8 | 69.2 | 0.00 | 0.00 | 0.00 | 100 | 1008.8 |
| 20260506191016 | 28 | 340 | 4.8 | 70.8 | 0.00 | 0.00 | 0.00 | 100 | 1008.9 |
| 20260506190017 | 28 | 341 | 3.2 | 66.0 | 0.00 | 0.00 | 0.00 | 100 | 1008.8 |
| 20260506185017 | 28 | 342 | 4.8 | 72.4 | 0.00 | 0.00 | 0.00 | 100 | 1008.7 |
| 20260506184018 | 28 | 342 | 4.8 | 69.2 | 0.00 | 0.00 | 0.00 | 100 | 1008.7 |
| 20260506183019 | 28 | 329 | 4.8 | 72.4 | 0.00 | 0.00 | 0.00 | 100 | 1008.7 |
| 20260506182019 | 28 | 326 | 4.8 | 72.4 | 0.00 | 0.00 | 0.00 | 100 | 1008.9 |
| 20260506181016 | 28 | 343 | 3.2 | 66.0 | 0.00 | 0.00 | 0.00 | 100 | 1008.9 |
| 20260506180016 | 29 | 327 | 3.2 | 64.4 | 0.00 | 0.00 | 0.00 | 100 | 1008.9 |
| 20260506175017 | 29 | 331 | 4.8 | 72.4 | 0.00 | 0.00 | 0.00 | 100 | 1009.0 |
| 20260506174018 | 29 | 337 | 3.2 | 67.6 | 0.00 | 0.00 | 0.00 | 100 | 1009.1 |
| 20260506173019 | 29 | 336 | 3.2 | 53.1 | 0.00 | 0.00 | 0.00 | 100 | 1009.2 |
| 20260506172121 | 29 | 341 | 3.2 | 56.3 | 0.00 | 0.00 | 0.00 | 100 | 1009.4 |
| 20260506171016 | 29 | 342 | 4.8 | 69.2 | 0.00 | 0.00 | 0.00 | 100 | 1009.5 |
| 20260506170036 | 29 | 329 | 4.8 | 77.2 | 0.00 | 0.00 | 0.00 | 100 | 1009.6 |
| 20260506165017 | 29 | 332 | 4.8 | 77.2 | 0.00 | 0.00 | 0.00 | 100 | 1009.7 |
| 20260506164040 | 29 | 342 | 4.8 | 67.6 | 0.00 | 0.00 | 0.00 | 100 | 1009.7 |
| 20260506163039 | 30 | 336 | 4.8 | 72.4 | 0.00 | 0.00 | 0.00 | 100 | 1009.7 |
| 20260506162100 | 30 | 328 | 4.8 | 72.4 | 0.00 | 0.00 | 0.00 | 100 | 1009.6 |
| 20260506161016 | 30 | 345 | 4.8 | 69.2 | 0.00 | 0.00 | 0.00 | 100 | 1009.7 |
| 20260506160016 | 30 | 342 | 4.8 | 70.8 | 0.00 | 0.00 | 0.00 | 100 | 1009.6 |
| 20260506155017 | 30 | 342 | 3.2 | 27.4 | 0.00 | 0.00 | 0.00 | 100 | 1009.5 |
| 20260506154018 | 30 | 341 | 3.2 | 57.9 | 0.00 | 0.00 | 0.00 | 100 | 1009.5 |
| 20260506153020 | 30 | 306 | 4.8 | 69.2 | 0.00 | 0.00 | 0.00 | 100 | 1009.4 |
| 20260506152020 | 30 | 341 | 4.8 | 69.2 | 0.00 | 0.00 | 0.00 | 100 | 1009.4 |
| 20260506151020 | 30 | 339 | 3.2 | 64.4 | 0.00 | 0.00 | 0.00 | 100 | 1009.3 |
| 20260506150016 | 30 | 347 | 4.8 | 69.2 | 0.00 | 0.00 | 0.00 | 100 | 1009.2 |
| 20260506145018 | 30 | 329 | 4.8 | 74.0 | 0.00 | 0.00 | 0.00 | 100 | 1009.0 |
| 20260506144018 | 30 | 342 | 3.2 | 66.0 | 0.00 | 0.00 | 0.00 | 100 | 1009.0 |
| 20260506143020 | 30 | 340 | 3.2 | 53.1 | 0.00 | 0.00 | 0.00 | 100 | 1008.8 |
| 20260506142020 | 30 | 342 | 4.8 | 70.8 | 0.00 | 0.00 | 0.00 | 100 | 1008.7 |
| 20260506141021 | 30 | 345 | 3.2 | 67.6 | 0.00 | 0.00 | 0.00 | 100 | 1008.6 |
| 20260506140016 | 30 | 350 | 3.2 | 66.0 | 0.00 | 0.00 | 0.00 | 100 | 1008.5 |
| 20260506135017 | 30 | 331 | 3.2 | 59.5 | 0.00 | 0.00 | 0.00 | 100 | 1008.4 |
| 20260506134038 | 30 | 29 | 3.2 | 61.2 | 0.00 | 0.00 | 0.00 | 100 | 1008.2 |
| 20260506133039 | 30 | 360 | 3.2 | 53.1 | 0.00 | 0.00 | 0.00 | 100 | 1008.0 |
| 20260506132039 | 30 | 351 | 4.8 | 70.8 | 0.00 | 0.00 | 0.00 | 100 | 1007.9 |
| 20260506131100 | 30 | 342 | 4.8 | 74.0 | 0.00 | 0.00 | 0.00 | 100 | 1007.8 |
| 20260506130016 | 31 | 347 | 4.8 | 67.6 | 0.00 | 0.00 | 0.00 | 100 | 1007.7 |
| 20260506125017 | 31 | 336 | 4.8 | 69.2 | 0.00 | 0.00 | 0.00 | 100 | 1007.7 |
| 20260506124017 | 30 | 334 | 4.8 | 69.2 | 0.00 | 0.00 | 0.00 | 100 | 1007.6 |
| 20260506123018 | 30 | 287 | 4.8 | 67.6 | 0.00 | 0.00 | 0.00 | 100 | 1007.5 |
| 20260506122020 | 31 | 270 | 4.8 | 67.6 | 0.00 | 0.00 | 0.00 | 100 | 1007.4 |
| 20260506121021 | 31 | 279 | 3.2 | 66.0 | 0.00 | 0.00 | 0.00 | 100 | 1007.3 |
| 20260506120016 | 31 | 271 | 4.8 | 70.8 | 0.00 | 0.00 | 0.00 | 100 | 1007.2 |
| 20260506115017 | 31 | 261 | 4.8 | 69.2 | 0.00 | 0.00 | 0.00 | 100 | 1007.2 |
| 20260506114017 | 31 | 253 | 4.8 | 74.0 | 0.00 | 0.00 | 0.00 | 100 | 1007.2 |
| 20260506113019 | 31 | 265 | 3.2 | 29.0 | 0.00 | 0.00 | 0.00 | 100 | 1007.2 |
| 20260506112020 | 31 | 325 | 4.8 | 69.2 | 0.00 | 0.00 | 0.00 | 100 | 1007.3 |
| 20260506111020 | 31 | 341 | 4.8 | 69.2 | 0.00 | 0.00 | 0.00 | 100 | 1007.2 |
| 20260506110015 | 32 | 323 | 4.8 | 67.6 | 0.00 | 0.00 | 0.00 | 100 | 1007.3 |
| 20260506105017 | 32 | 346 | 4.8 | 72.4 | 0.00 | 0.00 | 0.00 | 100 | 1007.4 |
| 20260506104039 | 32 | 343 | 3.2 | 62.8 | 0.00 | 0.00 | 0.00 | 100 | 1007.5 |
| 20260506103018 | 32 | 341 | 3.2 | 66.0 | 0.00 | 0.00 | 0.00 | 100 | 1007.6 |
| 20260506102019 | 32 | 348 | 4.8 | 67.6 | 0.00 | 0.00 | 0.00 | 100 | 1007.5 |
| 20260506101041 | 32 | 346 | 4.8 | 67.6 | 0.00 | 0.00 | 0.00 | 100 | 1007.4 |
| 20260506100016 | 32 | 337 | 4.8 | 67.6 | 0.00 | 0.00 | 0.00 | 100 | 1007.2 |
| 20260506095016 | 32 | 316 | 4.8 | 67.6 | 0.00 | 0.00 | 0.00 | 100 | 1007.4 |
| 20260506094017 | 32 | 309 | 4.8 | 72.4 | 0.00 | 0.00 | 0.00 | 100 | 1007.4 |
| 20260506093038 | 32 | 286 | 4.8 | 67.6 | 0.00 | 0.00 | 0.00 | 100 | 1007.3 |
| 20260506092019 | 32 | 308 | 3.2 | 66.0 | 0.00 | 0.00 | 0.00 | 100 | 1007.2 |
| 20260506091021 | 32 | 350 | 4.8 | 67.6 | 0.00 | 0.00 | 0.00 | 100 | 1007.1 |
| 20260506090037 | 32 | 340 | 3.2 | 67.6 | 0.00 | 0.00 | 0.00 | 100 | 1007.0 |
| 20260506085016 | 32 | 347 | 4.8 | 70.8 | 0.00 | 0.00 | 0.00 | 100 | 1007.1 |
| 20260506084018 | 32 | 321 | 4.8 | 72.4 | 0.00 | 0.00 | 0.00 | 100 | 1007.1 |
| 20260506083019 | 32 | 318 | 3.2 | 51.5 | 0.00 | 0.00 | 0.00 | 100 | 1007.3 |
| 20260506082039 | 32 | 308 | 4.8 | 69.2 | 0.00 | 0.00 | 0.00 | 100 | 1007.3 |
| 20260506081020 | 32 | 312 | 4.8 | 69.2 | 0.00 | 0.00 | 0.00 | 100 | 1007.4 |
| 20260506073018 | 34 | 332 | 4.8 | 69.2 | 0.00 | 0.00 | 0.00 | 100 | 1007.8 |
| 20260506072040 | 34 | 333 | 3.2 | 57.9 | 0.00 | 0.00 | 0.00 | 100 | 1007.7 |
| 20260506071019 | 34 | 337 | 3.2 | 64.4 | 0.00 | 0.00 | 0.00 | 100 | 1007.9 |
| 20260506062019 | 35 | 323 | 4.8 | 72.4 | 0.00 | 0.00 | 0.00 | 100 | 1008.7 |
| 20260506061019 | 35 | 289 | 4.8 | 67.6 | 0.00 | 0.00 | 0.00 | 100 | 1008.8 |
| 20260506051020 | 33 | 324 | 4.8 | 70.8 | 0.00 | 0.00 | 0.00 | 100 | 1010.1 |
| 20260506045016 | 33 | 338 | 4.8 | 69.2 | 0.00 | 0.00 | 0.00 | 100 | 1010.4 |
| 20260506044017 | 33 | 324 | 4.8 | 70.8 | 0.00 | 0.00 | 0.00 | 100 | 1010.4 |
| 20260506043018 | 33 | 310 | 3.2 | 66.0 | 0.00 | 0.00 | 0.00 | 100 | 1010.5 |
| 20260506042019 | 33 | 339 | 4.8 | 69.2 | 0.00 | 0.00 | 0.00 | 100 | 1010.4 |
| 20260506041019 | 32 | 343 | 3.2 | 66.0 | 0.00 | 0.00 | 0.00 | 100 | 1010.4 |
| 20260506040020 | 32 | 335 | 3.2 | 62.8 | 0.00 | 0.00 | 0.00 | 100 | 1010.4 |
| 20260506035016 | 32 | 344 | 3.2 | 66.0 | 0.00 | 0.00 | 0.00 | 100 | 1010.5 |
| 20260506034017 | 32 | 329 | 4.8 | 69.2 | 0.00 | 0.00 | 0.00 | 100 | 1010.6 |
| 20260506033018 | 32 | 341 | 4.8 | 69.2 | 0.00 | 0.00 | 0.00 | 100 | 1010.6 |
| 20260506032019 | 32 | 306 | 3.2 | 64.4 | 0.00 | 0.00 | 0.00 | 100 | 1010.6 |
| 20260506031019 | 31 | 337 | 4.8 | 69.2 | 0.00 | 0.00 | 0.00 | 100 | 1010.7 |
| 20260506025016 | 31 | 304 | 4.8 | 67.6 | 0.00 | 0.00 | 0.00 | 100 | 1010.7 |
| 20260506024037 | 31 | 294 | 4.8 | 74.0 | 0.00 | 0.00 | 0.00 | 100 | 1010.7 |
| 20260506023017 | 31 | 320 | 3.2 | 51.5 | 0.00 | 0.00 | 0.00 | 100 | 1010.7 |
| 20260506022019 | 31 | 271 | 3.2 | 64.4 | 0.00 | 0.00 | 0.00 | 100 | 1010.7 |
| 20260506021019 | 30 | 341 | 3.2 | 67.6 | 0.00 | 0.00 | 0.00 | 100 | 1010.6 |
| 20260506020041 | 30 | 295 | 4.8 | 69.2 | 0.00 | 0.00 | 0.00 | 100 | 1010.5 |
| 20260506015016 | 30 | 316 | 4.8 | 70.8 | 0.00 | 0.00 | 0.00 | 100 | 1010.4 |
| 20260506014016 | 30 | 293 | 3.2 | 67.6 | 0.00 | 0.00 | 0.00 | 100 | 1010.3 |
| 20260506013017 | 30 | 312 | 4.8 | 70.8 | 0.00 | 0.00 | 0.00 | 100 | 1010.3 |
| 20260506012018 | 29 | 328 | 4.8 | 70.8 | 0.00 | 0.00 | 0.00 | 100 | 1010.2 |
| 20260506011019 | 29 | 272 | 4.8 | 72.4 | 0.00 | 0.00 | 0.00 | 100 | 1010.1 |
| 20260506010041 | 29 | 299 | 3.2 | 25.7 | 0.00 | 0.00 | 0.00 | 100 | 1010.2 |
| 20260506005021 | 29 | 295 | 4.8 | 67.6 | 0.00 | 0.00 | 0.00 | 100 | 1010.2 |
| 20260506004017 | 29 | 282 | 3.2 | 67.6 | 0.00 | 0.00 | 0.00 | 100 | 1010.1 |
| 20260506003018 | 28 | 276 | 3.2 | 66.0 | 0.00 | 0.00 | 0.00 | 100 | 1009.9 |
| 20260506002018 | 28 | 258 | 3.2 | 66.0 | 0.00 | 0.00 | 0.00 | 100 | 1009.8 |
| 20260506001018 | 28 | 249 | 4.8 | 70.8 | 0.00 | 0.00 | 0.00 | 100 | 1009.7 |
| 20260506000020 | 28 | 260 | 4.8 | 67.6 | 0.00 | 0.00 | 0.00 | 100 | 1009.7 |
| 20260505235015 | 28 | 261 | 3.2 | 67.6 | 0.00 | 0.00 | 0.00 | 100 | 1009.7 |
| 20260505234016 | 28 | 261 | 3.2 | 67.6 | 0.00 | 0.00 | 0.00 | 100 | 1009.6 |
| 20260505233017 | 28 | 287 | 3.2 | 51.5 | 0.00 | 0.00 | 0.00 | 100 | 1009.7 |
| 20260505232018 | 28 | 293 | 4.8 | 69.2 | 0.00 | 0.00 | 0.00 | 100 | 1009.6 |
| 20260505231020 | 28 | 293 | 4.8 | 72.4 | 0.00 | 0.00 | 0.00 | 100 | 1009.5 |
| 20260505230020 | 28 | 267 | 4.8 | 69.2 | 0.00 | 0.00 | 0.00 | 100 | 1009.5 |
| 20260505225021 | 28 | 288 | 3.2 | 67.6 | 0.00 | 0.00 | 0.00 | 100 | 1009.4 |
| 20260505224016 | 28 | 275 | 3.2 | 64.4 | 0.00 | 0.00 | 0.00 | 100 | 1009.3 |
| 20260505223037 | 28 | 265 | 4.8 | 70.8 | 0.00 | 0.00 | 0.00 | 100 | 1009.2 |
| 20260505222018 | 28 | 260 | 4.8 | 70.8 | 0.00 | 0.00 | 0.00 | 100 | 1009.1 |
| 20260505221019 | 28 | 269 | 4.8 | 70.8 | 0.00 | 0.00 | 0.00 | 100 | 1009.0 |
| 20260505220020 | 28 | 269 | 4.8 | 70.8 | 0.00 | 0.00 | 0.00 | 100 | 1009.1 |
| 20260505215020 | 28 | 293 | 4.8 | 67.6 | 0.00 | 0.00 | 0.00 | 100 | 1009.2 |
| 20260505214017 | 28 | 263 | 4.8 | 69.2 | 0.00 | 0.00 | 0.00 | 100 | 1009.4 |
| 20260505213017 | 28 | 308 | 3.2 | 66.0 | 0.00 | 0.00 | 0.00 | 100 | 1009.3 |
| 20260505212038 | 28 | 271 | 3.2 | 64.4 | 0.00 | 0.00 | 0.00 | 100 | 1009.0 |
| 20260505211018 | 28 | 301 | 3.2 | 66.0 | 0.00 | 0.00 | 0.00 | 100 | 1009.1 |
| 20260505210019 | 28 | 256 | 4.8 | 67.6 | 0.00 | 0.00 | 0.00 | 100 | 1009.1 |
| 20260505205101 | 28 | 251 | 4.8 | 69.2 | 0.00 | 0.00 | 0.00 | 100 | 1009.2 |
| 20260505204037 | 29 | 272 | 4.8 | 67.6 | 0.00 | 0.00 | 0.00 | 100 | 1009.1 |
| 20260505203017 | 29 | 253 | 3.2 | 49.9 | 0.00 | 0.00 | 0.00 | 100 | 1009.0 |
| 20260505202018 | 29 | 251 | 4.8 | 70.8 | 0.00 | 0.00 | 0.00 | 100 | 1009.1 |
| 20260505201039 | 29 | 257 | 4.8 | 70.8 | 0.00 | 0.00 | 0.00 | 100 | 1009.3 |